• In Österreich
  • Länderverzeichnis
  • Für 7 Tage
  • Wassertemperatur
  • Satellitenkarten
  • Wetterkarte
  • News
  • Widgets
  • user-avatar
    Anmelden

    Stündliche Wetter Bourgoin

    Heute, 18 September, Dienstag

    Zeit Temperatur Niederschläge Wind Luftdruck Luftfeuchtigkeit
    00:00 +18°C° 0 mm 2 m/S 737 mmHg 82%
    01:00 +18°C° 0 mm 2 m/S 737 mmHg 84%
    02:00 +17°C° 0 mm 2 m/S 737 mmHg 87%
    03:00 +17°C° 0 mm 2 m/S 737 mmHg 89%
    04:00 +17°C° 0 mm 2 m/S 737 mmHg 89%
    05:00 +17°C° 0 mm 2 m/S 737 mmHg 89%
    06:00 +18°C° 0 mm 1 m/S 738 mmHg 89%
    07:00 +20°C° 0 mm 2 m/S 738 mmHg 79%
    08:00 +23°C° 0 mm 2 m/S 738 mmHg 69%
    09:00 +26°C° 0 mm 3 m/S 738 mmHg 60%
    10:00 +27°C° 0 mm 3 m/S 738 mmHg 54%
    11:00 +29°C° 0 mm 3 m/S 738 mmHg 48%
    12:00 +30°C° 0 mm 3 m/S 738 mmHg 44%
    13:00 +30°C° 0.1 mm 3 m/S 737 mmHg 44%
    14:00 +30°C° 0.1 mm 3 m/S 737 mmHg 44%
    15:00 +30°C° 0.1 mm 3 m/S 737 mmHg 44%
    16:00 +28°C° 0.1 mm 2 m/S 737 mmHg 52%
    17:00 +25°C° 0.1 mm 2 m/S 737 mmHg 60%
    18:00 +23°C° 0.1 mm 1 m/S 737 mmHg 67%
    19:00 +22°C° 0.1 mm 1 m/S 737 mmHg 70%
    20:00 +22°C° 0.1 mm 1 m/S 738 mmHg 73%
    21:00 +21°C° 0.1 mm 1 m/S 738 mmHg 76%
    22:00 +21°C° 0 mm 1 m/S 738 mmHg 78%
    23:00 +20°C° 0 mm 1 m/S 738 mmHg 80%

    Morgen, 19 September, Mittwoch

    Zeit Temperatur Niederschläge Wind Luftdruck Luftfeuchtigkeit
    00:00 +20°C° 0 mm 1 m/S 738 mmHg 82%
    01:00 +19°C° 0.1 mm 1 m/S 738 mmHg 84%
    02:00 +19°C° 0.1 mm 1 m/S 738 mmHg 85%
    03:00 +18°C° 0.1 mm 1 m/S 738 mmHg 87%
    04:00 +18°C° 0.1 mm 1 m/S 738 mmHg 87%
    05:00 +18°C° 0.1 mm 1 m/S 738 mmHg 87%
    06:00 +18°C° 0.1 mm 1 m/S 739 mmHg 87%
    07:00 +19°C° 0 mm 0 m/S 739 mmHg 77%
    08:00 +22°C° 0 mm 0 m/S 739 mmHg 67%
    09:00 +24°C° 0 mm 0 m/S 739 mmHg 58%
    10:00 +28°C° 0 mm 1 m/S 739 mmHg 53%
    11:00 +29°C° 0 mm 1 m/S 739 mmHg 48%
    12:00 +30°C° 0 mm 1 m/S 739 mmHg 43%
    13:00 +30°C° 0 mm 1 m/S 739 mmHg 43%
    14:00 +30°C° 0 mm 1 m/S 738 mmHg 43%
    15:00 +30°C° 0 mm 2 m/S 738 mmHg 42%
    16:00 +28°C° 0 mm 1 m/S 738 mmHg 50%
    17:00 +26°C° 0 mm 1 m/S 738 mmHg 58%
    18:00 +24°C° 0 mm 1 m/S 738 mmHg 66%
    19:00 +23°C° 0 mm 1 m/S 739 mmHg 69%
    20:00 +22°C° 0 mm 1 m/S 739 mmHg 72%
    21:00 +21°C° 0 mm 1 m/S 739 mmHg 75%
    22:00 +20°C° 0 mm 1 m/S 739 mmHg 77%
    23:00 +20°C° 0 mm 1 m/S 739 mmHg 78%

    übermorgen, 20 September, Donnerstag

    Zeit Temperatur Niederschläge Wind Luftdruck Luftfeuchtigkeit
    00:00 +19°C° 0 mm 1 m/S 739 mmHg 80%
    01:00 +19°C° 0 mm 1 m/S 739 mmHg 82%
    02:00 +19°C° 0 mm 1 m/S 739 mmHg 83%
    03:00 +18°C° 0 mm 1 m/S 739 mmHg 84%
    04:00 +18°C° 0 mm 1 m/S 739 mmHg 85%
    05:00 +18°C° 0 mm 1 m/S 739 mmHg 85%
    06:00 +18°C° 0 mm 1 m/S 739 mmHg 85%
    07:00 +20°C° 0 mm 1 m/S 739 mmHg 75%
    08:00 +23°C° 0 mm 1 m/S 739 mmHg 66%
    09:00 +26°C° 0 mm 1 m/S 739 mmHg 56%
    10:00 +27°C° 0 mm 1 m/S 739 mmHg 52%
    11:00 +28°C° 0 mm 2 m/S 738 mmHg 47%
    12:00 +30°C° 0 mm 2 m/S 738 mmHg 43%
    13:00 +30°C° 0 mm 2 m/S 738 mmHg 42%
    14:00 +30°C° 0 mm 2 m/S 737 mmHg 41%
    15:00 +30°C° 0 mm 1 m/S 737 mmHg 40%
    16:00 +28°C° 0 mm 1 m/S 737 mmHg 49%
    17:00 +25°C° 0 mm 1 m/S 736 mmHg 57%
    18:00 +21°C° 0 mm 0 m/S 736 mmHg 65%
    19:00 +22°C° 0 mm 1 m/S 736 mmHg 67%
    20:00 +22°C° 0 mm 1 m/S 737 mmHg 69%
    21:00 +21°C° 0 mm 1 m/S 737 mmHg 70%
    22:00 +21°C° 0 mm 1 m/S 737 mmHg 71%
    23:00 +19°C° 0 mm 2 m/S 737 mmHg 72%

    21 September, Freitag

    Zeit Temperatur Niederschläge Wind Luftdruck Luftfeuchtigkeit
    00:00 +19°C° 0 mm 2 m/S 736 mmHg 73%
    01:00 +19°C° 0 mm 2 m/S 736 mmHg 74%
    02:00 +18°C° 0 mm 2 m/S 736 mmHg 74%
    03:00 +18°C° 0 mm 2 m/S 736 mmHg 75%
    04:00 +18°C° 0 mm 2 m/S 736 mmHg 75%
    05:00 +18°C° 0 mm 2 m/S 736 mmHg 75%
    06:00 +18°C° 0 mm 2 m/S 736 mmHg 75%
    07:00 +21°C° 0 mm 2 m/S 736 mmHg 66%
    08:00 +25°C° 0 mm 2 m/S 736 mmHg 57%
    09:00 +27°C° 0 mm 3 m/S 736 mmHg 48%
    10:00 +29°C° 0 mm 3 m/S 736 mmHg 44%
    11:00 +30°C° 0 mm 4 m/S 735 mmHg 39%
    12:00 +33°C° 0 mm 4 m/S 735 mmHg 34%
    13:00 +32°C° 0 mm 4 m/S 735 mmHg 36%
    14:00 +32°C° 0 mm 4 m/S 734 mmHg 37%
    15:00 +30°C° 0 mm 4 m/S 734 mmHg 39%
    16:00 +28°C° 0.3 mm 4 m/S 735 mmHg 49%
    17:00 +25°C° 0.3 mm 4 m/S 736 mmHg 59%
    18:00 +22°C° 0.3 mm 4 m/S 736 mmHg 70%
    19:00 +20°C° 0.3 mm 4 m/S 737 mmHg 75%
    20:00 +19°C° 0.3 mm 3 m/S 738 mmHg 80%
    21:00 +17°C° 0.3 mm 3 m/S 739 mmHg 84%
    22:00 +16°C° 0 mm 3 m/S 739 mmHg 86%
    23:00 +15°C° 0 mm 2 m/S 739 mmHg 87%

    22 September, Samstag

    Zeit Temperatur Niederschläge Wind Luftdruck Luftfeuchtigkeit
    00:00 +14°C° 0 mm 2 m/S 739 mmHg 88%
    01:00 +13°C° 0 mm 2 m/S 739 mmHg 90%
    02:00 +12°C° 0 mm 2 m/S 739 mmHg 91%
    03:00 +10°C° 0 mm 2 m/S 739 mmHg 92%
    04:00 +10°C° 0 mm 2 m/S 740 mmHg 92%
    05:00 +10°C° 0 mm 2 m/S 740 mmHg 93%
    06:00 +10°C° 0 mm 2 m/S 740 mmHg 93%
    07:00 +13°C° 0 mm 2 m/S 740 mmHg 83%
    08:00 +14°C° 0 mm 3 m/S 740 mmHg 74%
    09:00 +16°C° 0 mm 3 m/S 740 mmHg 64%
    10:00 +18°C° 0 mm 3 m/S 740 mmHg 56%
    11:00 +19°C° 0 mm 3 m/S 740 mmHg 48%
    12:00 +20°C° 0 mm 4 m/S 739 mmHg 41%
    13:00 +21°C° 0 mm 4 m/S 739 mmHg 40%
    14:00 +21°C° 0 mm 4 m/S 739 mmHg 39%
    15:00 +21°C° 0 mm 4 m/S 739 mmHg 38%
    16:00 +19°C° 0 mm 3 m/S 739 mmHg 44%
    17:00 +17°C° 0 mm 2 m/S 739 mmHg 51%
    18:00 +15°C° 0 mm 2 m/S 739 mmHg 57%
    19:00 +14°C° 0 mm 1 m/S 740 mmHg 59%
    20:00 +13°C° 0 mm 1 m/S 740 mmHg 61%
    21:00 +12°C° 0 mm 1 m/S 740 mmHg 64%
    22:00 +12°C° 0 mm 1 m/S 740 mmHg 64%
    23:00 +12°C° 0 mm 1 m/S 740 mmHg 64%

    23 September, Sonntag

    Zeit Temperatur Niederschläge Wind Luftdruck Luftfeuchtigkeit
    00:00 +11°C° 0 mm 0 m/S 739 mmHg 64%
    01:00 +12°C° 0 mm 1 m/S 739 mmHg 63%
    02:00 +12°C° 0 mm 1 m/S 739 mmHg 63%
    03:00 +12°C° 0 mm 1 m/S 739 mmHg 62%
    04:00 +12°C° 0 mm 1 m/S 738 mmHg 61%
    05:00 +13°C° 0 mm 1 m/S 738 mmHg 60%
    06:00 +13°C° 0 mm 1 m/S 737 mmHg 59%
    07:00 +16°C° 0 mm 2 m/S 737 mmHg 51%
    08:00 +20°C° 0 mm 2 m/S 737 mmHg 43%
    09:00 +24°C° 0 mm 2 m/S 736 mmHg 36%
    10:00 +26°C° 0 mm 3 m/S 736 mmHg 35%
    11:00 +28°C° 0 mm 4 m/S 735 mmHg 34%
    12:00 +30°C° 0 mm 5 m/S 735 mmHg 34%
    13:00 +30°C° 0 mm 5 m/S 734 mmHg 35%
    14:00 +30°C° 0 mm 6 m/S 733 mmHg 35%
    15:00 +30°C° 0 mm 6 m/S 732 mmHg 36%
    16:00 +28°C° 0.1 mm 6 m/S 733 mmHg 42%
    17:00 +26°C° 0.1 mm 6 m/S 733 mmHg 48%
    18:00 +23°C° 0.1 mm 5 m/S 734 mmHg 54%
    19:00 +20°C° 0.6 mm 5 m/S 735 mmHg 62%
    20:00 +17°C° 0.6 mm 4 m/S 736 mmHg 71%
    21:00 +13°C° 0.6 mm 4 m/S 737 mmHg 79%
    22:00 +13°C° 0.1 mm 3 m/S 737 mmHg 79%
    23:00 +12°C° 0.1 mm 3 m/S 738 mmHg 79%
    Mehr zeigen